Find Starlink 5539

NORAD ID: 55747 Int'l Des: 2023-028 Owner: SPXS Country: US Constellation: starlink operational
LEOCIRCULAR

リアルタイム位置

3D地球を読み込み中...

Starlink 5539について

説明を読み込み中...

次回通過

Passes for default location (London). Set your location on the main map for personalized predictions.

高度履歴

Loading altitude history...

軌道要素

1 55747U 23028G 26133.14718771 .00000002 00000-0 79312-5 0 9993
2 55747 69.9995 82.0025 0003204 270.1399 89.9393 14.98335081175695
Epoch: May 13, 2026 • Age: 8 hours

現在のステータス

高度 589.3 km
速度 7.57 km/s
衛星直下点 -50.83°S, 14.12°E
打ち上げ日 Mar 3, 2023
運用期間 3.1 years
タイプ internet

技術仕様

分類 Payload
質量 305.00 kg
乾燥質量 290.00 kg
総質量 305.00 kg
長さ 0.20 m
直径 2.80 m
スパン 9.00 m
形状 Box + pan
製造者 SPXS
バスタイプ Starlink
フェーズステータス In Orbit
所有者/国 SPXS/US

Most Searched